STARLINK-3287 (50172 NORAD) Tracking and Keplerian Element Data

This shows tracking and keplerian element data for the satellite.

Feedback or suggestion? Click here.




ElementValue
Catalog50172
NameSTARLINK-3287
Epoch Orbit130
Epoch Day140.58334491
Epoch Year2022
RAAN5.0673
Inclination53.2186
Eccentricity0.0002084
Argument of Perigee40.2516
Mean Anonmoly6.2589
Mean Motion15.08829641
Decay Rate0.00019736
L11 50172U 21125S 22140.58334491 .00019736 00000+0 12550-2 0 9992
L22 50172 53.2186 5.0673 0002084 40.2516 6.2589 15.08829641 1303

Live tracking and technical data element details for STARLINK-3287 (NORAD 50172). STARLINK-3287 can be tracked NOW for your location showing map with azimuth and elevation plus other details from your city location.

Track the satellite on the map from your city or location and see movement details for azimuth, elevation, latitude, longitude, range, height, and movement on the map or in text.







IsCatalogInMostPopularTable: catalog: 50172, numindb: 22
Update: records affected: 1



GetName: 50172 STARLINK-3287

Hit Count: updated at: Mon, 23 May 2022 20:37:21 GMT